Skip Page Navigation
NASA JPL Caltech
NASA Logo - Jet Propulsion Laboratory + View the NASA Portal
+ Center for Near-Earth Object Studies
JPL Home Earth Solar System Stars & Galaxies Technology
JPL Solar System Dynamics
BODIES ORBITS EPHEMERIDES TOOLS PHYSICAL DATA DISCOVERY FAQ SITE MAP
JPL Small-Body Database Browser
Search: [ help ]  
175907 (2000 AR36)
Classification: Main-belt Asteroid          SPK-ID: 2175907
Ephemeris | Orbit Diagram | Orbital Elements | Mission Design | Physical Parameters | Discovery Circumstances ]

[ show orbit diagram ]
Orbital Elements at Epoch 2459200.5 (2020-Dec-17.0) TDB
Reference: JPL 15 (heliocentric ecliptic J2000)
 Element Value Uncertainty (1-sigma)   Units 
e .1534348608467964 3.5901e-08  
a 2.45568484876284 1.1893e-08 au
q 2.078897185709327 8.5104e-08 au
i .9446072250841734 3.9034e-06 deg
node 321.1926029234005 0.00033798 deg
peri 176.2113248587501 0.00033871 deg
M 137.0792648764677 2.4829e-05 deg
tp 2458665.287018164983
(2019-Jun-30.78701816)
9.4367e-05 TDB
period 1405.585838487253
3.85
1.0211e-05
2.796e-08
d
yr
n .256120964044036 1.8607e-09 deg/d
Q 2.832472511816352 1.3718e-08 au
  Orbit Determination Parameters
   # obs. used (total)      395  
   data-arc span      7974 days (21.83 yr)  
   first obs. used      1998-09-14  
   last obs. used      2020-07-14  
   planetary ephem.      DE441  
   SB-pert. ephem.      SB441-N16  
   condition code      0  
   norm. resid. RMS      .52912  
   source      ORB  
   producer      Otto Matic  
   solution date      2021-Apr-13 21:07:19  

Additional Information
 Earth MOID = 1.0924 au 
 Jupiter MOID = 2.19408 au 
 T_jup = 3.476 
[ show covariance matrix ]

Ephemeris | Orbit Diagram | Orbital Elements | Mission Design | Physical Parameters | Discovery Circumstances ]

Physical Parameter Table
Parameter Symbol Value Units Sigma Reference Notes
absolute magnitude H 17.03   n/a E2021B55  

175907 (2000 AR36)          Discovered 2000-Jan-03 by LINEAR at Socorro
Reference: 20080221/Numbers.arcLast Updated: 2008-02-22

Alternate Designations
 2000 AR36 = 2004 BV51 
Ephemeris | Orbit Diagram | Orbital Elements | Mission Design | Physical Parameters | Discovery Circumstances ]
ABOUT SSD CREDITS/AWARDS PRIVACY/COPYRIGHT GLOSSARY LINKS
FirstGov 2021-Apr-17 03:52 UT
(server date/time)  
NASA Home Page
Site Manager:   Ryan S. Park
Webmaster  Alan B. Chamberlin